Temp
-17 -18 -18 -19 -19 -20 -21 -22 -23 -24 -25 -26 -27 -27 -28 -29 -29 -30 -31 -32 -32 -32 -32 -32 -32 -32 -32 -31 -31 -29 -28 -27 -25 -24 -22 -22 -23 -23 -23 -22 -21 -21 -21 -21
-18 -18 -19 -20 -20 -21 -22 -23 -24 -25 -26 -26 -28 -29 -29 -30 -30 -31 -32 -33 -33 -33 -33 -33 -33 -33 -33 -32 -32 -31 -29 -28 -26 -25 -23 -23 -23 -22 -23 -22 -21 -21 -22 -21
-18 -19 -19 -20 -21 -22 -23 -24 -25 -26 -28 -28 -28 -29 -30 -31 -31 -32 -33 -33 -33 -33 -33 -34 -35 -35 -34 -33 -33 -32 -31 -29 -28 -27 -26 -24 -24 -23 -23 -23 -22 -21 -22 -22
-19 -19 -20 -21 -22 -23 -24 -25 -26 -27 -28 -29 -30 -30 -31 -31 -32 -33 -34 -34 -34 -34 -34 -34 -35 -36 -35 -35 -34 -33 -33 -31 -29 -29 -27 -26 -25 -25 -24 -23 -23 -22 -21 -22
-19 -20 -21 -21 -22 -23 -25 -27 -27 -28 -29 -30 -30 -30 -31 -32 -33 -34 -34 -34 -34 -34 -34 -35 -35 -36 -36 -35 -35 -34 -34 -32 -31 -30 -30 -28 -26 -26 -27 -23 -23 -22 -22 -22
-20 -21 -21 -22 -23 -24 -26 -27 -28 -28 -29 -30 -31 -31 -32 -33 -34 -34 -34 -34 -34 -34 -34 -35 -36 -36 -36 -36 -36 -36 -35 -34 -33 -32 -31 -30 -28 -28 -26 -26 -25 -24 -23 -23
-21 -21 -22 -23 -24 -26 -27 -28 -29 -29 -30 -31 -31 -32 -33 -34 -34 -34 -35 -34 -34 -34 -35 -35 -36 -36 -36 -36 -36 -36 -36 -35 -35 -34 -33 -31 -29 -28 -29 -27 -27 -25 -25 -24
-21 -22 -23 -24 -26 -27 -28 -29 -29 -30 -30 -32 -32 -33 -34 -35 -35 -35 -35 -35 -35 -35 -35 -36 -36 -36 -36 -36 -36 -36 -36 -36 -36 -35 -35 -33 -32 -30 -29 -30 -28 -26 -26 -25
-22 -23 -24 -25 -27 -28 -28 -30 -30 -31 -31 -33 -34 -34 -35 -35 -35 -35 -35 -35 -35 -35 -35 -36 -37 -37 -37 -37 -36 -36 -36 -36 -36 -36 -36 -35 -35 -34 -32 -31 -30 -28 -27 -26
-22 -24 -25 -26 -27 -29 -29 -30 -31 -32 -33 -34 -35 -35 -35 -36 -35 -35 -35 -35 -35 -35 -35 -36 -37 -37 -37 -37 -37 -37 -37 -37 -37 -36 -36 -36 -36 -36 -35 -30 -30 -30 -29 -28
-24 -24 -25 -27 -27 -28 -30 -30 -31 -33 -34 -35 -35 -35 -36 -36 -36 -36 -36 -36 -36 -36 -36 -36 -37 -37 -37 -37 -37 -37 -37 -37 -37 -37 -37 -36 -36 -36 -35 -34 -33 -33 -31 -30
-24 -25 -27 -27 -28 -29 -30 -30 -33 -34 -35 -35 -35 -35 -36 -36 -36 -36 -36 -36 -36 -36 -36 -37 -37 -37 -38 -38 -38 -38 -38 -38 -37 -37 -37 -37 -37 -37 -37 -36 -36 -34 -33 -32
-25 -26 -27 -28 -28 -29 -30 -31 -33 -35 -35 -35 -35 -36 -36 -36 -36 -37 -37 -36 -36 -36 -37 -37 -37 -37 -38 -38 -38 -38 -39 -38 -38 -38 -37 -37 -37 -37 -37 -37 -36 -36 -35 -34
-26 -27 -27 -28 -28 -29 -30 -32 -34 -34 -35 -35 -36 -36 -37 -37 -37 -37 -37 -37 -37 -37 -37 -37 -37 -38 -38 -38 -38 -39 -39 -39 -39 -38 -38 -38 -37 -38 -37 -37 -37 -36 -36 -35
-27 -27 -28 -28 -28 -29 -31 -34 -35 -36 -36 -37 -37 -37 -37 -37 -37 -37 -37 -37 -37 -37 -37 -37 -37 -38 -38 -38 -39 -39 -39 -39 -39 -39 -39 -38 -38 -38 -38 -38 -37 -37 -37 -36
-28 -28 -28 -28 -29 -31 -33 -34 -34 -35 -35 -37 -37 -38 -38 -38 -38 -38 -38 -38 -37 -37 -37 -37 -37 -38 -38 -38 -39 -39 -40 -40 -40 -40 -39 -39 -39 -39 -38 -38 -38 -37 -37 -37
-28 -28 -28 -29 -31 -32 -33 -34 -34 -34 -36 -37 -38 -38 -38 -38 -38 -38 -38 -38 -38 -38 -38 -38 -38 -38 -38 -39 -39 -39 -40 -40 -40 -40 -39 -39 -39 -39 -39 -38 -38 -38 -37 -37
-28 -28 -29 -31 -32 -33 -34 -34 -35 -35 -37 -38 -39 -39 -39 -38 -38 -38 -38 -38 -38 -38 -38 -38 -38 -38 -38 -39 -39 -39 -40 -40 -40 -40 -39 -39 -39 -39 -38 -38 -38 -38 -38 -38
-28 -29 -31 -32 -33 -34 -34 -35 -36 -37 -38 -39 -39 -39 -39 -39 -39 -39 -39 -39 -39 -38 -38 -38 -38 -38 -38 -39 -39 -39 -39 -39 -40 -39 -39 -39 -39 -39 -39 -38 -38 -38 -38 -38
-29 -31 -32 -33 -34 -35 -35 -36 -37 -37 -38 -38 -39 -39 -39 -39 -39 -39 -39 -39 -39 -38 -38 -38 -38 -38 -38 -38 -39 -39 -39 -39 -39 -39 -39 -39 -39 -39 -39 -39 -39 -38 -38 -37
-31 -32 -33 -34 -34 -35 -36 -36 -37 -38 -38 -39 -39 -40 -40 -39 -39 -39 -39 -39 -39 -38 -39 -38 -38 -38 -38 -38 -39 -39 -39 -39 -39 -39 -39 -39 -39 -39 -39 -39 -39 -38 -38 -38
-32 -32 -33 -34 -35 -35 -36 -37 -38 -38 -39 -40 -40 -40 -40 -40 -40 -39 -39 -39 -39 -39 -39 -39 -39 -39 -38 -38 -39 -39 -39 -39 -39 -39 -39 -39 -39 -39 -39 -39 -39 -38 -38 -38
-32 -33 -34 -35 -35 -36 -37 -38 -38 -38 -39 -39 -39 -40 -40 -40 -40 -40 -40 -40 -39 -39 -39 -39 -39 -39 -39 -39 -39 -39 -39 -39 -39 -39 -39 -39 -39 -39 -39 -39 -39 -38 -38 -38
-33 -34 -35 -35 -36 -37 -37 -38 -38 -39 -39 -39 -39 -39 -40 -40 -40 -40 -40 -40 -40 -39 -39 -39 -40 -39 -39 -39 -39 -39 -39 -39 -39 -39 -39 -39 -39 -39 -39 -39 -39 -39 -38 -38
-34 -35 -35 -36 -36 -37 -38 -38 -39 -39 -39 -39 -40 -40 -40 -40 -40 -40 -40 -40 -40 -40 -40 -40 -40 -40 -40 -40 -40 -40 -40 -39 -39 -39 -39 -39 -39 -39 -39 -39 -39 -39 -39 -39
-35 -35 -36 -36 -37 -38 -38 -38 -39 -39 -39 -39 -40 -40 -40 -40 -40 -41 -41 -41 -41 -41 -41 -41 -41 -41 -40 -40 -40 -40 -40 -40 -40 -40 -40 -39 -39 -39 -40 -40 -40 -39 -39 -39
-35 -36 -36 -37 -37 -38 -38 -39 -39 -39 -39 -40 -40 -40 -41 -41 -41 -41 -41 -41 -41 -41 -41 -41 -41 -41 -41 -41 -41 -41 -41 -41 -40 -40 -40 -40 -40 -40 -40 -40 -40 -40 -40 -40
Height
5666 5655 5644 5633 5621 5610 5595 5586 5575 5561 5547 5539 5527 5521 5512 5506 5498 5489 5481 5474 5466 5461 5457 5455 5453 5452 5450 5452 5454 5459 5465 5473 5487 5502 5495 5500 5504 5508 5518 5524 5535 5540 5548 5550
5655 5645 5633 5620 5607 5595 5585 5574 5563 5557 5543 5532 5521 5510 5502 5493 5485 5478 5471 5466 5460 5455 5451 5447 5446 5445 5444 5444 5446 5448 5453 5461 5476 5487 5488 5484 5489 5494 5501 5514 5521 5527 5534 5536
5643 5632 5620 5608 5594 5582 5570 5558 5546 5535 5523 5519 5512 5500 5492 5482 5474 5469 5463 5458 5453 5449 5445 5442 5440 5439 5437 5438 5438 5438 5441 5449 5457 5466 5459 5468 5474 5481 5491 5500 5511 5510 5512 5521
5632 5620 5608 5596 5583 5570 5559 5546 5534 5526 5516 5507 5495 5487 5479 5472 5465 5460 5455 5452 5447 5442 5438 5435 5434 5432 5432 5432 5430 5431 5433 5437 5442 5449 5452 5453 5462 5467 5476 5488 5493 5498 5501 5508
5621 5609 5593 5582 5573 5560 5546 5537 5526 5515 5506 5494 5485 5476 5469 5462 5456 5451 5448 5444 5441 5437 5432 5428 5428 5427 5427 5427 5426 5425 5426 5429 5430 5434 5439 5439 5448 5457 5464 5469 5477 5486 5490 5498
5608 5595 5582 5570 5558 5546 5535 5523 5514 5503 5497 5484 5473 5463 5455 5451 5446 5444 5440 5437 5434 5431 5427 5424 5423 5423 5423 5423 5422 5421 5421 5421 5422 5424 5429 5433 5440 5441 5452 5459 5463 5470 5479 5485
5595 5581 5568 5556 5544 5533 5522 5509 5499 5489 5483 5471 5460 5450 5445 5440 5438 5435 5434 5431 5428 5426 5422 5420 5420 5420 5419 5419 5418 5418 5418 5417 5417 5417 5418 5426 5431 5432 5435 5448 5453 5458 5465 5472
5582 5570 5556 5543 5531 5521 5510 5496 5485 5474 5467 5456 5450 5442 5435 5432 5430 5428 5426 5425 5423 5420 5418 5416 5416 5416 5416 5415 5415 5415 5414 5414 5414 5414 5414 5415 5420 5423 5426 5432 5442 5446 5452 5460
5571 5557 5544 5532 5520 5508 5497 5486 5474 5462 5452 5446 5435 5431 5428 5425 5423 5422 5419 5419 5417 5415 5413 5412 5412 5413 5412 5413 5412 5411 5412 5412 5412 5412 5411 5411 5412 5413 5414 5414 5429 5437 5444 5449
5556 5543 5532 5520 5508 5496 5483 5474 5462 5449 5439 5436 5429 5424 5422 5418 5416 5415 5414 5412 5411 5410 5409 5407 5407 5407 5407 5407 5407 5406 5408 5408 5408 5409 5408 5407 5406 5406 5404 5420 5424 5423 5429 5437
5543 5531 5520 5509 5497 5485 5471 5462 5449 5438 5430 5427 5420 5417 5414 5412 5410 5410 5408 5407 5405 5405 5404 5403 5402 5401 5400 5400 5400 5400 5401 5402 5403 5404 5404 5405 5403 5403 5405 5407 5409 5413 5419 5426
5530 5519 5507 5496 5483 5471 5459 5447 5436 5424 5421 5418 5413 5410 5407 5406 5404 5404 5402 5401 5399 5399 5398 5397 5396 5396 5395 5393 5393 5393 5394 5395 5396 5399 5400 5399 5399 5400 5400 5401 5402 5405 5409 5414
5517 5506 5496 5484 5471 5458 5444 5434 5426 5420 5414 5411 5406 5403 5400 5398 5398 5397 5396 5394 5394 5393 5393 5392 5391 5390 5389 5388 5387 5387 5386 5387 5389 5392 5393 5394 5395 5395 5396 5397 5398 5399 5401 5404
5506 5494 5483 5470 5458 5445 5431 5421 5415 5410 5406 5402 5399 5396 5393 5392 5390 5390 5389 5388 5387 5387 5387 5386 5385 5385 5384 5383 5381 5381 5381 5380 5381 5384 5386 5388 5389 5390 5392 5393 5394 5395 5397 5398
5493 5481 5469 5456 5443 5430 5420 5412 5406 5402 5399 5395 5391 5388 5386 5384 5383 5383 5382 5382 5382 5381 5381 5381 5380 5379 5377 5376 5376 5375 5373 5373 5374 5377 5379 5382 5383 5385 5386 5388 5389 5391 5392 5394
5481 5469 5455 5441 5429 5417 5410 5405 5400 5395 5390 5387 5384 5381 5379 5378 5377 5377 5376 5376 5376 5376 5376 5375 5374 5373 5372 5372 5371 5369 5368 5368 5368 5371 5373 5376 5378 5380 5382 5383 5384 5385 5387 5389
5468 5454 5441 5427 5416 5408 5402 5397 5391 5386 5382 5380 5377 5374 5374 5372 5372 5371 5371 5370 5370 5371 5370 5370 5370 5369 5368 5367 5366 5365 5364 5365 5366 5367 5368 5371 5373 5375 5377 5378 5379 5380 5380 5381
5454 5440 5427 5415 5406 5399 5393 5386 5381 5377 5374 5372 5372 5370 5369 5367 5366 5365 5365 5365 5365 5365 5365 5365 5365 5365 5364 5363 5362 5362 5362 5362 5363 5364 5364 5366 5369 5370 5371 5372 5373 5374 5375 5375
5441 5428 5416 5408 5399 5392 5385 5378 5374 5371 5371 5367 5366 5365 5364 5363 5362 5361 5361 5360 5360 5361 5360 5360 5361 5360 5360 5359 5359 5358 5359 5359 5359 5360 5361 5362 5363 5365 5365 5366 5367 5367 5368 5369
5429 5417 5408 5399 5392 5383 5378 5371 5370 5366 5365 5362 5361 5360 5359 5360 5358 5357 5357 5356 5356 5356 5356 5356 5356 5356 5356 5355 5355 5355 5355 5355 5356 5356 5357 5357 5358 5359 5360 5360 5360 5360 5360 5360
5418 5408 5399 5390 5383 5377 5371 5368 5365 5362 5359 5358 5357 5356 5355 5355 5354 5353 5352 5351 5351 5351 5352 5352 5352 5352 5352 5352 5351 5351 5351 5351 5351 5351 5352 5353 5353 5353 5354 5354 5354 5353 5353 5353
5410 5401 5391 5383 5376 5371 5367 5363 5359 5357 5356 5353 5352 5351 5350 5349 5348 5348 5347 5346 5346 5346 5347 5347 5348 5348 5348 5348 5347 5347 5346 5346 5346 5346 5346 5347 5347 5348 5348 5348 5348 5348 5348 5348
5401 5392 5384 5378 5372 5367 5362 5358 5355 5352 5350 5348 5346 5345 5344 5343 5343 5343 5342 5342 5342 5342 5342 5343 5344 5343 5343 5343 5343 5343 5342 5342 5342 5341 5341 5341 5341 5342 5342 5343 5343 5343 5343 5343
5394 5386 5379 5373 5366 5361 5357 5354 5350 5347 5344 5342 5340 5338 5337 5336 5336 5336 5337 5337 5337 5337 5338 5338 5338 5338 5338 5338 5338 5338 5338 5338 5338 5337 5336 5336 5336 5336 5336 5336 5337 5337 5338 5338
5388 5380 5373 5368 5363 5357 5353 5349 5345 5342 5339 5336 5334 5332 5332 5331 5330 5330 5330 5331 5331 5332 5333 5333 5333 5333 5333 5333 5333 5334 5333 5333 5333 5332 5332 5331 5331 5330 5330 5330 5331 5331 5332 5332
5383 5375 5370 5364 5359 5355 5350 5346 5341 5338 5334 5331 5328 5326 5325 5324 5324 5325 5324 5325 5326 5327 5327 5327 5327 5327 5327 5328 5328 5328 5328 5328 5327 5327 5326 5326 5325 5325 5325 5325 5325 5325 5325 5326
5378 5371 5366 5361 5356 5351 5346 5341 5337 5333 5329 5326 5323 5321 5320 5320 5319 5319 5320 5320 5320 5321 5321 5321 5321 5321 5321 5321 5322 5322 5322 5322 5322 5321 5321 5320 5320 5319 5319 5319 5318 5319 5319 5319
Wind_Speed
56 60 63 66 67 68 69 69 67 66 65 64 63 60 58 53 50 46 41 38 36 32 29 27 23 22 27 34 37 47 53 60 44 41 37 48 45 45 47 46 42 47 47 50
59 63 66 68 69 71 70 68 66 62 63 61 58 59 55 52 50 42 37 33 33 31 28 26 20 20 22 24 30 37 52 54 57 47 56 44 49 56 45 51 36 49 49 50
63 66 69 71 70 71 70 68 67 66 65 61 60 57 51 49 44 39 33 30 30 30 26 22 18 16 19 20 23 30 36 55 55 52 51 57 64 50 52 54 52 40 57 54
66 69 70 72 70 70 68 67 66 64 60 60 60 57 53 47 39 35 30 28 28 29 27 23 19 16 18 18 21 22 30 39 57 61 55 58 49 45 59 64 60 65 40 58
70 72 72 73 71 70 66 64 64 63 61 62 60 56 51 44 35 31 27 28 25 27 26 23 14 17 16 15 18 20 24 30 43 52 59 60 64 49 33 55 71 71 67 48
72 74 73 72 70 68 65 66 65 63 62 61 60 54 47 38 30 26 26 25 24 25 22 18 14 13 13 13 13 16 19 23 32 41 46 66 59 57 54 42 46 62 67 74
73 74 73 71 69 67 66 67 66 67 65 63 56 48 41 33 27 25 24 24 22 23 21 16 15 14 15 15 14 14 13 16 20 24 34 47 63 61 56 50 45 47 41 51
74 73 71 68 67 66 68 67 69 69 68 60 49 41 35 28 25 24 23 21 20 20 20 16 14 13 10 9 9 11 10 10 10 10 11 30 41 57 61 50 50 52 54 52
74 72 68 67 66 67 68 69 70 71 70 51 43 35 29 26 25 22 23 21 19 19 17 14 10 10 12 14 15 15 13 13 13 11 11 15 24 28 49 57 50 52 54 57
72 68 66 66 66 67 69 70 71 69 59 42 36 31 25 25 24 22 22 22 19 17 16 14 11 13 17 19 20 22 18 16 17 14 15 14 17 22 30 53 54 54 54 54
69 67 66 66 67 69 72 73 69 59 47 35 33 29 25 24 23 21 19 21 19 17 15 14 12 14 16 21 26 27 26 23 24 19 18 18 21 20 23 23 31 41 49 53
68 66 65 66 70 73 75 72 56 46 40 33 31 28 24 21 20 21 20 22 22 19 15 14 14 14 14 16 21 23 22 22 23 22 21 18 15 16 16 14 15 21 30 39
65 65 65 69 73 77 77 60 44 34 33 30 30 25 22 19 17 19 21 21 22 20 18 16 15 18 18 18 19 19 19 24 23 23 22 20 18 18 16 14 13 12 17 24
65 65 68 72 77 78 65 47 34 29 30 28 29 28 25 24 22 20 20 21 20 20 18 18 16 18 19 19 21 20 20 21 23 25 24 21 20 20 19 17 16 15 15 17
64 67 72 76 79 70 48 32 26 31 30 33 38 27 22 21 19 19 19 19 18 18 18 18 17 18 20 17 16 18 18 20 20 22 22 22 22 22 22 21 19 18 18 18
66 70 75 78 71 50 35 27 28 27 30 26 24 23 19 18 17 17 18 19 17 17 17 17 17 17 17 14 13 15 13 10 11 18 22 19 18 18 17 18 21 24 22 22
69 73 77 70 53 39 32 30 31 31 27 19 16 19 18 18 16 15 15 16 16 16 14 16 16 16 15 12 12 13 11 10 10 12 21 21 19 19 17 17 17 18 20 24
72 75 70 52 43 37 34 34 32 28 22 20 20 24 21 20 18 18 17 17 16 16 15 15 15 14 13 11 13 11 9 11 15 14 12 20 20 17 19 20 18 18 18 19
73 69 53 45 40 38 36 32 26 21 19 23 24 21 17 14 14 15 15 15 14 14 14 13 13 13 12 11 11 11 11 12 12 14 17 15 20 21 20 20 20 21 22 22
68 55 48 44 42 37 31 25 20 17 17 17 16 16 14 13 14 15 16 15 15 13 12 13 12 12 12 12 12 12 12 14 14 13 14 16 19 21 23 22 23 24 23 23
57 51 46 43 37 31 26 21 18 16 15 14 14 16 17 18 18 18 17 16 16 14 13 14 12 13 13 12 12 12 13 15 16 17 18 19 20 21 22 22 22 20 20 19
52 48 43 38 32 28 24 21 18 16 15 16 18 19 19 18 17 17 15 15 15 14 13 14 13 14 14 13 13 12 12 14 16 18 19 19 19 19 19 19 18 18 17 16
49 44 39 34 30 26 24 21 20 18 18 18 20 20 20 19 17 16 16 15 14 14 14 14 13 16 15 15 14 13 12 12 13 14 15 17 19 19 18 18 17 17 16 15
45 40 35 31 29 27 24 22 20 19 18 17 17 16 17 17 18 18 17 18 18 17 14 13 14 16 16 15 14 14 13 13 14 14 14 15 15 16 18 18 18 17 17 16
40 37 32 30 28 25 23 22 21 20 19 19 18 18 18 16 15 15 18 19 19 17 16 15 15 16 16 16 15 16 15 15 15 15 15 14 15 15 15 16 17 18 18 18
37 33 30 28 26 24 23 21 20 20 19 19 17 16 15 15 16 16 15 16 18 18 19 19 19 18 18 18 18 18 18 17 17 17 16 16 16 16 16 16 16 17 18 18
34 30 29 27 26 24 22 21 20 19 17 16 14 13 12 12 12 12 14 15 16 18 19 20 21 21 21 21 22 22 21 20 19 18 18 18 18 17 17 17 17 17 18 18
Wind_Direction
320 321 322 323 324 326 327 326 325 326 326 326 326 328 327 326 323 320 318 317 315 316 308 301 293 277 258 249 247 233 225 227 215 193 199 207 215 218 225 229 239 231 230 234
321 324 326 325 326 327 327 325 324 325 324 325 326 324 324 323 321 319 318 316 317 317 309 304 295 281 274 264 256 247 231 224 222 208 212 218 197 211 216 213 225 227 227 225
325 325 325 326 327 326 325 323 325 327 327 325 325 323 322 319 316 316 313 315 315 317 312 299 293 280 280 273 259 249 241 228 220 210 217 216 228 217 224 216 211 203 222 228
325 325 325 327 326 324 324 324 325 326 325 324 323 321 319 316 311 310 310 312 313 318 312 298 283 275 274 283 271 257 244 234 231 225 222 218 212 203 206 217 212 221 213 215
326 326 324 325 324 324 322 322 323 325 325 322 322 319 315 312 309 307 307 309 311 316 311 302 288 274 278 287 279 268 255 242 235 236 233 234 223 214 206 207 210 215 228 221
326 324 324 322 323 323 322 322 323 324 325 323 320 316 313 309 303 299 304 306 309 314 314 305 296 276 274 291 292 278 270 257 245 244 240 234 233 241 229 210 201 209 217 227
324 324 322 322 323 323 323 322 323 324 325 323 318 312 309 305 300 297 302 303 307 314 313 298 290 285 285 291 293 287 281 268 263 257 250 241 234 238 247 229 223 207 201 209
323 322 322 323 323 323 323 322 324 324 325 321 315 311 309 306 299 297 299 302 305 311 311 298 285 301 299 293 284 298 289 285 277 278 279 238 235 239 242 245 231 225 223 215
322 322 322 324 323 323 323 324 323 324 322 321 316 316 309 303 297 295 298 304 300 305 310 300 280 279 260 262 272 277 282 285 284 271 262 269 246 247 243 243 243 234 222 221
322 323 323 323 325 322 322 324 324 321 321 321 315 311 309 301 297 294 297 301 295 298 305 299 276 257 259 262 262 263 265 280 275 271 252 252 268 265 253 236 239 242 240 235
322 322 322 325 325 324 322 324 322 318 319 321 313 309 305 300 297 292 296 296 293 293 299 296 277 255 257 257 259 263 265 262 268 263 264 269 263 272 273 258 249 247 245 245
322 321 324 325 324 324 323 323 317 316 320 315 310 309 300 295 290 290 286 288 287 285 286 289 288 271 271 260 257 263 261 257 256 256 258 266 270 266 268 271 264 252 249 247
321 324 325 325 324 324 323 319 317 303 308 309 307 303 294 290 285 283 285 286 284 284 281 282 282 276 272 270 272 271 270 256 254 250 249 254 268 260 260 257 257 247 245 245
324 326 325 324 324 324 321 318 314 311 308 309 310 305 292 286 283 278 277 279 279 280 277 281 287 283 280 275 274 278 270 262 253 248 247 251 261 257 252 252 247 244 239 237
325 325 324 325 324 323 322 317 311 302 302 292 295 297 294 287 282 278 277 279 277 279 278 280 283 285 283 281 281 285 270 263 254 236 242 244 248 250 250 253 252 247 243 238
326 325 325 325 325 324 322 317 307 304 294 288 286 292 293 289 282 276 273 274 272 274 278 280 285 283 283 281 291 291 268 257 258 235 230 236 241 247 251 251 255 253 251 246
326 326 326 326 326 326 322 319 313 309 306 304 301 306 306 292 287 280 275 275 277 276 280 281 282 282 286 284 292 293 260 240 245 259 234 234 241 247 250 255 260 260 256 253
327 327 326 327 328 325 324 319 316 313 308 308 304 299 295 288 284 279 275 272 270 273 271 274 278 284 288 282 287 280 275 252 248 253 249 240 242 251 252 259 267 257 251 254
328 327 328 328 328 326 323 320 316 308 295 290 289 287 287 284 282 280 280 280 279 276 274 269 273 281 287 287 281 278 265 258 257 258 251 251 251 254 258 269 264 261 259 257
328 328 329 329 328 326 325 322 314 302 291 281 278 275 272 279 282 281 282 280 281 276 268 267 272 278 283 286 282 274 269 260 259 261 261 255 255 259 264 266 270 270 268 267
328 331 330 329 331 329 327 324 317 311 299 289 275 270 273 280 284 285 284 282 277 272 263 265 269 274 280 286 288 280 270 265 265 264 262 262 261 263 266 269 271 270 274 270
330 330 332 333 332 330 328 325 317 308 293 281 275 275 275 276 276 277 276 275 275 275 269 264 267 267 276 282 283 283 280 275 269 267 265 264 264 264 264 265 263 268 266 266
332 333 334 334 332 331 328 324 318 309 301 290 283 281 277 273 270 268 270 272 275 272 268 266 263 263 271 274 278 279 280 280 279 277 273 266 263 262 262 261 260 260 262 261
333 335 334 335 334 331 328 325 320 314 305 298 294 290 284 276 269 266 264 263 265 268 273 273 267 264 267 267 271 271 277 279 280 280 278 276 271 264 259 259 258 258 260 260
334 336 337 335 333 332 329 326 324 320 314 307 297 288 281 279 277 270 263 261 262 266 270 269 268 266 268 267 264 266 273 277 279 279 279 278 274 270 264 260 258 258 257 257
338 338 336 336 335 332 329 327 324 321 316 309 303 295 286 277 272 268 267 263 261 261 262 264 265 265 264 264 266 269 272 274 276 277 277 276 274 272 268 265 263 260 259 258
339 339 338 337 336 337 335 333 331 328 325 321 315 306 296 286 275 270 266 265 264 264 264 265 265 266 267 268 268 269 271 271 270 272 273 274 273 271 270 268 266 264 262 261